Printer-friendly version

IAU Minor Planet Center

Minor Planet Center

MPEC 2006-M10 : 2006 MB

The following Minor Planet Electronic Circular may be linked-to from your own Web pages, but must not otherwise be redistributed electronically.


Read MPEC 2006-M09 Read MPEC 2006-M11


M.P.E.C. 2006-M10                                Issued 2006 June 19, 17:24 UT

     The Minor Planet Electronic Circulars contain information on unusual
         minor planets and routine data on comets.  They are published
   on behalf of Commission 20 of the International Astronomical Union by the
          Minor Planet Center, Smithsonian Astrophysical Observatory,
                          Cambridge, MA 02138, U.S.A.

                  Supported in part by the Brinson Foundation
                  Supported in part by the TABASGO Foundation
             Prepared using the Tamkin Foundation Computer Network

                              MPC@CFA.HARVARD.EDU
          URL http://cfa-www.harvard.edu/iau/mpc.html  ISSN 1523-6714

                                    2006 MB

Observations:
     K06M00B* C2006 06 18.26736 15 23 29.95 +00 14 13.3          19.6 V EM010691
     K06M00B  C2006 06 18.28018 15 23 32.06 +00 15 37.0          19.5 V EM010691
     K06M00B  C2006 06 18.29307 15 23 34.15 +00 17 00.6          19.5 V EM010691
     K06M00B tC2006 06 19.16367 15 26 23.09 +01 48 27.7          19.9 V EM010291
     K06M00B tC2006 06 19.16770 15 26 23.72 +01 48 52.7          19.9 V EM010291
     K06M00B tC2006 06 19.17723 15 26 25.19 +01 49 50.8          20.1 V EM010291
     K06M00B  C2006 06 19.20290 15 26 27.88 +01 52 17.4          19.2 R EM010734
     K06M00B  C2006 06 19.20305 15 26 29.10 +01 52 27.3          19.4 R EM010854
     K06M00B  C2006 06 19.20469 15 26 28.17 +01 52 28.1          18.9 R EM010734
     K06M00B  C2006 06 19.20647 15 26 28.44 +01 52 39.0          19.2 R EM010734
     K06M00B  C2006 06 19.21842 15 26 31.50 +01 53 59.7          19.4 R EM010854
     K06M00B 5C2006 06 19.22361 15 26 32.84 +01 54 27.9          19.6 R EM010673
     K06M00B  C2006 06 19.22608 15 26 32.64 +01 54 46.7          19.4 R EM010854
     K06M00B 5C2006 06 19.22951 15 26 33.75 +01 55 03.4                 EM010673
     K06M00B 5C2006 06 19.23495 15 26 34.63 +01 55 37.9                 EM010673
     K06M00B 5C2006 06 19.24178 15 26 35.64 +01 56 17.7                 EM010673
     K06M00B  C2006 06 19.27803 15 26 40.94 +01 59 56.2          18.9 R EM010682
     K06M00B tC2006 06 19.30498 15 26 44.95 +02 02 41.9          19.7 V EM010291
     K06M00B tC2006 06 19.30932 15 26 45.64 +02 03 09.4          19.8 V EM010291
     K06M00B tC2006 06 19.31315 15 26 46.25 +02 03 32.5          19.8 V EM010291
     K06M00B tC2006 06 19.32170 15 26 47.62 +02 04 24.0          20.1 V EM010291
     K06M00B tC2006 06 19.32648 15 26 48.40 +02 04 53.6          18.9 V EM010291
     K06M00B tC2006 06 19.33026 15 26 49.01 +02 05 15.6          20.0 V EM010291
     K06M00B tC2006 06 19.38733 15 27 03.93 +02 12 44.5          18.6 R EM010474
     K06M00B tC2006 06 19.39034 15 27 04.45 +02 13 03.5          19.3 R EM010474
     K06M00B tC2006 06 19.39207 15 27 04.71 +02 13 14.0          18.8 R EM010474
     K06M00B  C2006 06 19.41105 15 27 07.65 +02 15 07.4          18.5 R EM010474
     K06M00B  C2006 06 19.41199 15 27 07.85 +02 15 13.6          19.2 R EM010474

Observer details:
291 LPL/Spacewatch II.  Observer R. S. McMillan.  1.8-m f/2.7 reflector + CCD.
474 Mount John Observatory, Lake Tekapo.  Observers A. C. Gilmore,
    P. M. Kilmartin.  Measurer P. M. Kilmartin.  1.0-m f/7.7 reflector + CCD.
673 Table Mountain Observatory, Wrightwood.  Observer J. Young.  0.61-m f/16
    Cassegrain + CCD.
682 Kanab.  Observer E. Sheridan.  0.36-m f/5.5 Schmidt-Cassegrain + CCD.
691 Steward Observatory, Kitt Peak.  Observers A. S. Descour, R. S. McMillan.
    0.9-m f/3 reflector + CCD.
734 Farpoint Observatory.  Observers G. Hug, D. Tibbets.  Measurer K. Dobbs.
    0.7-m reflector + CCD.
854 Sabino Canyon Observatory, Tucson.  Observer J. E. McGaha.  0.36-m f/10.0
    Schmidt-Cassegrain + CCD.

Orbital elements:
2006 MB                                                  Earth MOID = 0.0622 AU
Epoch 2006 June 14.0 TT = JDT 2453900.5                 MPC
M  66.94469              (2000.0)            P               Q
n   0.83926074     Peri.  286.50045     -0.96765725     +0.06436352
a   1.1131101      Node   257.69451     +0.02216643     -0.94147098
e   0.0835333      Incl.   14.45712     -0.25129285     -0.33089233
P   1.17           H   22.9           G   0.15
From 28 observations 2006 June 18-19.

Ephemeris:
2006 MB                  a,e,i = 1.11, 0.08, 14                  q = 1.0201
Date    TT    R. A. (2000) Decl.     Delta      r     Elong.  Phase     V
2006 06 14    15 08.10   -08 50.1    0.0832   1.084   143.5    33.9    19.1
2006 06 19    15 25.85   +01 32.4    0.0984   1.090   137.1    39.3    19.6
2006 06 24    15 39.87   +08 37.1    0.117    1.097   131.3    44.1    20.1
2006 06 29    15 51.63   +13 21.1    0.137    1.104   126.6    47.7    20.6
2006 07 04    16 02.00   +16 29.7    0.159    1.111   122.8    50.3    21.0
2006 07 09    16 11.49   +18 33.6    0.181    1.118   119.8    52.1    21.3
2006 07 14    16 20.43   +19 52.3    0.203    1.124   117.3    53.4    21.7
2006 07 19    16 29.05   +20 38.2    0.226    1.131   115.2    54.4    21.9
2006 07 24    16 37.54   +20 59.2    0.248    1.137   113.4    55.1    22.2

Kyle E. Smalley              (C) Copyright 2006 MPC           M.P.E.C. 2006-M10

Read MPEC 2006-M09 Read MPEC 2006-M11


Our Web policy. Index to the CBAT/MPC/ICQ pages.


Valid HTML 4.01!